Telfer Airport, Australia

5:35 PM AWST on August 25, 2016 (GMT +0800)
Telfer

Weather History for YTEF - January, 2013

Change the Weather History Date:

Friday, January 25, 2013

  Actual Average Record
Temperature  
Mean Temperature 92 °F -  
Max Temperature 103 °F - - ()
Min Temperature 80 °F - - ()
Cooling Degree Days 26    
Growing Degree Days 42 (Base 50)    
Moisture  
Dew Point 63 °F    
Average Humidity 37    
Maximum Humidity 58    
Minimum Humidity 21    
Precipitation  
Precipitation 0.00 in - - ()
Sea Level Pressure  
Sea Level Pressure 29.77 in    
Wind  
Wind Speed 13 mph ()    
Max Wind Speed 22 mph    
Max Gust Speed 32 mph    
T = Trace of Precipitation, MM = Missing Value Source: Averaged Metar Reports

Daily Weather History Graph

Daily Weather History Graph

Search for Another Location

Airport or City:

Trip Planner

Search our weather history database for the weather conditions in past years. The results will help you decide how hot, cold, wet, or windy it might be!

Date:

Astronomy

Jan. 25, 2013 Rise Set
Actual Time 5:27 AM AWST 6:38 PM AWST
Civil Twilight 5:03 AM AWST 7:02 PM AWST
Nautical Twilight 4:35 AM AWST 7:30 PM AWST
Astronomical Twilight 4:06 AM AWST 8:00 PM AWST
Moon 5:06 PM AWST 3:35 AM AWST
Length of Visible Light 13h 58m
Length of Day
13h 10m
Waxing Gibbous, 96% of the Moon is Illuminated
Jan 25
Waxing Gibbous
Jan 27
Full
Feb 3
Last Quarter
Feb 10
New
Feb 18
First Quarter

Hourly Weather History & Observations

Time (AWST) Temp. Heat Index Dew Point Humidity Pressure Visibility Wind Dir Wind Speed Gust Speed Precip Events Conditions
12:00 AM 87 °F - 69 °F 47% 29.73 in - SE 12.7 mph - -  
12:00 AM 86.0 °F 90.4 °F 69.8 °F 58% 29.80 in - SE 12.7 mph - N/A   Unknown
1:00 AM 84.2 °F 86.6 °F 66.2 °F 55% 29.80 in - South 13.8 mph - N/A   Unknown
2:00 AM 83 °F - 66 °F 46% 29.73 in - SSE 6.9 mph - -  
2:00 AM 82.4 °F 84.6 °F 66.2 °F 58% 29.80 in - SSE 6.9 mph - N/A   Unknown
3:00 AM 82 °F - 64 °F 45% 29.72 in - SSE 10.4 mph - -  
3:00 AM 82.4 °F 83.9 °F 64.4 °F 54% 29.77 in - SSE 10.4 mph - N/A   Unknown
4:00 AM 80.6 °F 82.3 °F 64.4 °F 58% 29.80 in - SSE 8.1 mph - N/A   Unknown
5:00 AM 81 °F - 64 °F 47% 29.74 in - SSE 8.1 mph - -  
5:00 AM 80.6 °F 82.3 °F 64.4 °F 58% 29.80 in - SSE 8.1 mph - N/A   Unknown
6:00 AM 82 °F - 65 °F 46% 29.77 in - SE 9.2 mph - -  
6:00 AM 82.4 °F 83.9 °F 64.4 °F 54% 29.83 in - SE 9.2 mph - N/A   Unknown
7:00 AM 86.0 °F 87.3 °F 64.4 °F 48% 29.83 in - SE 11.5 mph - N/A   Unknown
7:54 AM 87.8 °F 89.4 °F 64.4 °F 46% 29.83 in - ESE 18.4 mph - N/A   Unknown
8:00 AM 88 °F - 64 °F 35% 29.78 in - SE 19.6 mph - -  
8:00 AM 87.8 °F 89.4 °F 64.4 °F 46% 29.83 in - SE 19.6 mph - N/A   Unknown
9:00 AM 92 °F - 64 °F 29% 29.78 in - ESE 19.6 mph - -  
9:00 AM 93.2 °F 94.9 °F 64.4 °F 38% 29.83 in - ESE 19.6 mph - N/A   Unknown
10:00 AM 96.8 °F 98.0 °F 62.6 °F 32% 29.83 in - ESE 20.7 mph - N/A   Unknown
11:00 AM 97 °F - 63 °F 24% 29.76 in - ESE 19.6 mph - -  
11:00 AM 96.8 °F 98.0 °F 62.6 °F 32% 29.83 in - ESE 19.6 mph - N/A   Unknown
12:00 PM 100 °F - 63 °F 21% 29.73 in - SE 18.4 mph - -  
12:00 PM 100.4 °F 102.4 °F 62.6 °F 29% 29.80 in - SE 18.4 mph - N/A   Unknown
1:00 PM 98.6 °F 100.0 °F 62.6 °F 30% 29.77 in - ESE 17.3 mph - N/A   Unknown
2:00 PM 101 °F - 64 °F 21% 29.70 in - SE 16.1 mph - -  
2:00 PM 100.4 °F 103.6 °F 64.4 °F 31% 29.77 in - SE 16.1 mph - N/A   Unknown
3:00 PM 100 °F - 63 °F 21% 29.68 in - SE 17.3 mph - -  
3:00 PM 100.4 °F 102.4 °F 62.6 °F 29% 29.74 in - SE 17.3 mph - N/A   Unknown
4:00 PM 102.2 °F 105.5 °F 64.4 °F 29% 29.74 in - SE 15.0 mph - N/A   Unknown
5:00 PM 100 °F - 63 °F 21% 29.67 in - SE 15.0 mph - -  
5:00 PM 100.4 °F 102.4 °F 62.6 °F 29% 29.74 in - SE 15.0 mph - N/A   Unknown
6:00 PM 97 °F - 62 °F 22% 29.68 in - SSE 21.9 mph - -  
6:00 PM 96.8 °F 98.0 °F 62.6 °F 32% 29.74 in - SSE 21.9 mph - N/A   Unknown
7:00 PM 95.0 °F 95.2 °F 60.8 °F 32% 29.77 in - SE 19.6 mph - N/A   Unknown
8:00 PM 92 °F - 59 °F 23% 29.74 in - SSE 21.9 mph - -  
8:00 PM 91.4 °F 90.7 °F 59.0 °F 34% 29.80 in - SSE 21.9 mph - N/A   Unknown
8:50 PM 89.6 °F 88.1 °F 57.2 °F 33% 29.83 in - SSE 20.7 mph 32.2 mph N/A   Unknown
9:00 PM 89 °F - 57 °F 24% 29.76 in - SSE 20.7 mph - -  
9:00 PM 89.6 °F 88.1 °F 57.2 °F 33% 29.83 in - SSE 20.7 mph - N/A   Unknown
10:00 PM 87.8 °F 86.5 °F 57.2 °F 35% 29.83 in - SSE 20.7 mph - N/A   Unknown
11:00 PM 87 °F - 55 °F 24% 29.77 in - SE 19.6 mph - -  
11:00 PM 87.8 °F 86.1 °F 55.4 °F 33% 29.83 in - SE 19.6 mph - N/A   Unknown